Location: Leeds
(37.2390°N, 113.3580°W)
Time: 18:25:21
(UTC-07:00)

Daily predictions for brighter satellites

Satellite Brightness Start Highest point End
(mag) Time Altitude Azimuth Time Altitude Azimuth Time Altitude Azimuth
NOSS 3-4 (A) 4.1 17:37:43 10° S 17:43:22 38° ESE 17:49:09 10° NE
NOSS 3-4 (C) 4.1 17:37:49 10° S 17:43:28 38° ESE 17:49:14 10° NE
SJ 16-02 1.6 17:39:44 10° S 17:43:57 49° ESE 17:48:13 10° NNE
BREEZE-M DEB (TANK) 3.8 17:42:50 10° WNW 17:45:06 43° SW 17:50:02 10° SE
COSMO-SKYMED 1 4.0 17:42:32 10° NE 17:45:43 20° E 17:48:54 10° SE
Cosmos 2369 3.8 17:40:14 10° S 17:45:49 66° ESE 17:51:29 10° NNE
Cosmos 2278 3.8 17:40:24 10° S 17:45:59 62° ESE 17:51:37 10° NNE
Meteor 1-28 Rocket 3.6 17:42:50 10° NNE 17:46:27 43° E 17:50:03 10° S
CZ-2C R/B 3.5 17:42:53 10° S 17:47:57 53° W 17:52:59 10° NNW
Cosmos 1975 Rocket 4.4 17:44:40 10° SSW 17:48:56 43° W 17:53:13 10° N
CSL-04 Rocket 3.7 17:44:20 10° SSE 17:49:42 69° ENE 17:55:11 10° N
Hubble Space Telescope 3.3 17:47:02 10° WSW 17:49:58 19° SSW 17:52:54 10° SSE
Meteor 1-13 Rocket 4.2 17:47:22 10° S 17:52:56 80° E 17:58:39 10° N
IRAS Rocket 4.2 17:50:42 10° SSE 17:56:10 78° ENE 18:01:39 10° NNW
Cosmos 1743 3.1 17:54:28 10° NNW 17:58:20 71° W 18:02:12 10° S
CENTAUR R/B 4.2 17:54:17 10° N 18:00:06 22° NE 18:06:13 10° E
Cosmos 1697 Rocket 3.0 17:55:42 10° S 18:01:06 49° ESE 18:06:32 10° NNE
CZ-4 R/B 1.5 17:57:59 10° SSE 18:01:43 49° ENE 18:05:32 10° N
CZ-2C R/B 3.9 17:59:08 10° NNE 18:03:47 57° E 18:08:28 10° S
Cosmos 1025 Rocket 3.9 18:03:06 10° SSE 18:06:45 27° E 18:10:23 10° NNE
SPOT 3 Rocket 4.4 18:05:01 10° ESE 18:09:16 26° ENE 18:13:31 10° NNE
Ariane Rocket 3.0 18:05:53 10° SSE 18:10:56 87° WSW 18:16:01 10° NNW
ERS-2 3.3 18:08:31 10° ESE 18:11:24 22° ENE 18:14:16 10° NNE
Cosmos 2084 3.5 18:11:03 10° SSW 18:15:11 54° ESE 18:18:20 15° NE
Landsat 4 4.0 18:11:31 10° NNE 18:15:14 48° E 18:18:55 10° S
SMAP 3.3 18:12:21 10° S 18:16:59 75° WSW 18:21:39 10° NNW
Cosmos 1536 Rocket 3.8 18:12:48 10° SSW 18:17:08 73° W 18:21:28 10° N
Cosmos 2082 3.6 18:12:05 10° NNW 18:17:44 79° ENE 18:23:21 10° SSE
Okean 2 3.7 18:19:14 10° SSE 18:23:05 42° E 18:26:58 10° NNE
Cosmos 1125 Rocket 4.1 18:19:35 10° SSW 18:24:48 60° WNW 18:30:03 10° N
CORIOLIS 4.3 18:20:31 10° S 18:25:55 77° WSW 18:31:20 10° NNW
Cosmos 1269 Rocket 3.9 18:22:10 10° NNW 18:27:29 72° ENE 18:32:44 10° SSE
Cosmos 2227 Rocket 2.7 18:22:58 10° NNW 18:28:35 65° WSW 18:34:09 10° S
ALOS 2.6 18:27:49 10° SE 18:32:12 42° ENE 18:36:36 10° N
USA 238 DEB 4.2 18:25:13 10° NW 18:32:16 66° WSW 18:39:23 10° SSE
USA 238 4.2 18:25:19 10° NW 18:32:23 67° WSW 18:39:30 10° SSE
MTI 3.6 18:29:23 12° NNE 18:32:25 76° ESE 18:35:39 10° S
SKYMED 2 3.5 18:29:38 10° NNE 18:33:58 72° E 18:38:17 10° S
Cosmos 1048 Rocket 4.2 18:29:50 10° NNW 18:35:14 78° WSW 18:40:34 10° SSE
SL-8 R/B 4.4 18:37:00 10° SSW 18:41:26 38° SE 18:43:16 27° E
Cosmos 1980 Rocket 2.2 18:36:59 10° S 18:42:34 64° ESE 18:46:52 18° NNE
Cosmos 1066 Rocket 4.5 18:41:22 10° SSE 18:46:32 42° E 18:49:39 22° NE
Nadezhda 2 Rocket 4.4 18:41:55 10° N 18:48:16 73° E 18:54:39 10° SSE
MOS 1 4.2 18:47:13 10° SSE 18:52:54 86° ENE 18:58:37 10° NNW
Cosmos 2297 Rocket 3.4 18:49:32 10° NW 18:54:53 45° WSW 19:00:14 10° S
PSLV R/B 3.9 18:54:24 10° WNW 18:57:06 39° NNW 18:57:06 39° NNW
NOSS 3-2 (A) 4.2 18:52:48 10° NW 19:00:30 77° WSW 19:08:47 10° SSE
Cosmos 1892 Rocket 3.8 18:58:40 10° SSE 19:02:47 46° E 19:02:47 46° E
YAOGAN 1 3.8 18:58:51 10° S 19:02:57 42° W 19:07:04 10° NNW
Lacrosse 5 rocket 2.8 19:02:37 10° S 19:05:08 25° SSE 19:05:08 25° SSE
NOAA 12 4.0 19:03:33 10° SSE 19:08:49 87° WSW 19:14:06 10° NNW
NOSS 3-2 (C) 4.0 19:01:13 10° NNW 19:08:57 88° WSW 19:17:16 10° SSE
Atlas Centaur 2 4.1 19:06:12 10° WSW 19:09:39 17° SSW 19:12:40 10° SSE
ISS -0.2 19:10:04 10° WSW 19:10:37 10° SW 19:11:11 10° SW
DELTA 2 R/B (1) 3.5 19:05:18 10° WNW 19:10:53 87° NNE 19:12:35 47° ESE
Fregat R/B Cluster 11 4.0 19:06:59 10° SSW 19:11:06 55° SE 19:11:06 55° SE
ATLAS 3B R/B 4.3 19:06:13 10° NW 19:11:59 33° WSW 19:17:40 10° S
Cosmos 2227 4.3 19:10:13 10° NNW 19:15:49 51° ENE 19:16:09 51° ENE
USA 215 4.1 19:12:36 10° SSE 19:18:52 49° SW 19:25:10 10° NW
RESURS DK-1 2.5 19:15:11 10° SSW 19:19:17 71° WNW 19:19:43 64° NNW
COSMO-SKYMED 1 4.3 19:18:03 10° N 19:21:54 31° WNW 19:25:44 10° SW
SJ 16-02 4.1 19:20:37 10° W 19:22:51 14° WNW 19:25:05 10° NNW
FENGYUN 3A 4.1 19:19:38 10° S 19:24:56 60° W 19:30:15 10° NNW
SL-16 R/B 2.6 19:20:01 10° S 19:24:28 43° SE 19:24:28 43° SE
S3M 3.8 19:19:45 10° S 19:25:51 76° E 19:28:55 31° NNE
Cosmos 2322 Rocket 2.7 19:24:18 10° S 19:28:31 43° SE 19:28:31 43° SE
Cosmos 2263 Rocket 4.4 19:25:07 10° N 19:25:19 11° N 19:25:19 11° N
H-2A R/B 3.8 19:37:29 10° SW 19:38:40 21° SSW 19:38:40 21° SSW
Cosmos 2344 3.5 19:33:14 10° SSW 19:40:44 58° ESE 19:41:25 56° E
NOSS 2-2 (D) 4.4 19:37:51 10° SW 19:40:59 43° W 19:40:59 43° W
BREEZE-M DEB (TANK) 4.4 19:43:49 10° NW 19:47:46 89° NE 19:49:07 61° SE
CENTAUR R/B 3.0 19:43:59 10° NNW 19:52:03 79° ENE 19:54:02 57° SE
Thor Agena Rocket 4.1 20:01:50 55° WSW 20:01:50 55° WSW 20:06:23 10° SSW
Cosmos 2251 Rocket 4.3 19:59:13 10° NNW 20:03:45 48° W 20:03:45 48° W
Cosmos 1980 Rocket 4.4 20:23:14 10° W 20:27:03 18° NW 20:28:41 16° NNW
